Flag for U.S.A. Weather past 2 weeks in Duluth, Minnesota, U.S.A.

Now
45 °F

Clear.


Feels Like: 42 °F
Forecast: 38 / 53 °F
Wind: 5 mph from Southeast

Location: Sky Harbor Airport

Current Time: Oct 22, 2014 at 1:32:55 AM

Latest Report: Oct 22, 2014 at 12:53 AM


Visibility: 10 mi

Pressure: 30.21 "Hg

Humidity: 76%

Dew point: 37 °F

Location of DuluthLocation

Historic Weather in Duluth — Graph

°F

Duluth temperature yesterday

Maximum temperature yesterday: 48 °F (at 12:13 AM)
Minimum temperature yesterday: 41 °F (at 10:54 PM)
Average temperature yesterday: 46 °F

Past Weeks' High & Low Weather Summary

 TemperatureHumidityPressure
High63 °F (Oct 12, 1:54 PM)100% (Oct 13, 5:34 PM)30.27 "Hg (Oct 13, 5:34 PM)
Low32 °F (Oct 11, 4:53 AM)34% (Oct 12, 3:34 PM)29.00 "Hg (Oct 16, 6:13 PM)
Average47 °F74%29.96 "Hg
* Reported Oct 7 12:13 AM — Oct 22 12:34 AM, Duluth, Weather by CustomWeather, © 2014

Note: Actual official high and low records may vary slightly from our data, if they occured in-between our weather recording intervals... More about our weather records

Advertising

Duluth weather history for previous 24 hours

 ConditionsComfort  
Time TempWeatherWind HumidityBarometerVisibility
12:34 AM
Oct 22
43 °FClear.No wind81%30.21 "Hg10 mi
12:13 AM43 °FClear.No wind81%30.22 "Hg10 mi
11:54 PM
Oct 21
43 °FClear.No wind81%30.22 "Hg10 mi
11:33 PM43 °FClear.No wind81%30.23 "Hg10 mi
11:13 PM41 °FClear.No wind87%30.23 "Hg10 mi
10:54 PM41 °FClear.3 mph87%30.23 "Hg10 mi
10:33 PM43 °FClear.No wind81%30.23 "Hg10 mi
10:14 PM43 °FClear.5 mph87%30.23 "Hg10 mi
9:53 PM43 °FClear.10 mph87%30.23 "Hg10 mi
9:34 PM45 °FClear.9 mph81%30.23 "Hg10 mi
9:13 PM45 °FClear.12 mph81%30.23 "Hg10 mi
8:54 PM45 °FClear.13 mph81%30.22 "Hg10 mi
8:33 PM45 °FClear.14 mph81%30.22 "Hg10 mi
7:53 PM46 °FClear.16 mph82%30.21 "Hg10 mi
7:34 PM46 °FClear.20 mph87%30.20 "Hg10 mi
7:13 PM46 °FClear.23 mph87%30.20 "Hg10 mi
6:54 PM46 °FSunny.22 mph82%30.19 "Hg10 mi
6:33 PM46 °FSunny.23 mph82%30.19 "Hg10 mi
6:13 PM46 °FSunny.20 mph82%30.19 "Hg10 mi
5:54 PM46 °FSunny.22 mph82%30.20 "Hg10 mi
5:33 PM46 °FSunny.21 mph82%30.20 "Hg10 mi
5:13 PM46 °FSunny.18 mph82%30.20 "Hg10 mi
4:53 PM46 °FSunny.20 mph76%30.21 "Hg10 mi
4:33 PM46 °FSunny.18 mph76%30.21 "Hg10 mi
4:14 PM46 °FSunny.17 mph76%30.21 "Hg10 mi
3:53 PM46 °FSunny.18 mph76%30.22 "Hg10 mi
3:34 PM46 °FSunny.20 mph76%30.22 "Hg10 mi
3:13 PM46 °FSunny.20 mph76%30.22 "Hg10 mi
2:53 PM48 °FSunny.17 mph71%30.23 "Hg10 mi
2:34 PM48 °FSunny.18 mph71%30.23 "Hg10 mi
2:13 PM46 °FScattered clouds.16 mph76%30.24 "Hg10 mi
1:54 PM46 °FPartly sunny.14 mph76%30.24 "Hg10 mi
1:33 PM46 °FOvercast.15 mph76%30.25 "Hg10 mi
1:13 PM46 °FOvercast.14 mph71%30.25 "Hg10 mi
12:53 PM46 °FOvercast.13 mph71%30.25 "Hg10 mi
12:33 PM46 °FOvercast.10 mph71%30.26 "Hg10 mi
12:13 PM46 °FOvercast.8 mph71%30.27 "Hg10 mi
11:54 AM46 °FOvercast.10 mph71%30.27 "Hg10 mi
11:33 AM46 °FOvercast.7 mph71%30.27 "Hg10 mi
11:13 AM45 °FOvercast.6 mph76%30.27 "Hg10 mi
10:54 AM45 °FOvercast.6 mph76%30.27 "Hg10 mi
10:33 AM45 °FOvercast.7 mph76%30.27 "Hg10 mi
10:13 AM45 °FOvercast.8 mph76%30.27 "Hg10 mi
9:54 AM45 °FOvercast.10 mph76%30.27 "Hg10 mi
9:33 AM45 °FOvercast.7 mph76%30.26 "Hg10 mi
9:14 AM45 °FOvercast.10 mph76%30.25 "Hg10 mi
8:53 AM45 °FOvercast.9 mph76%30.25 "Hg10 mi
8:34 AM45 °FOvercast.7 mph76%30.25 "Hg10 mi
8:13 AM45 °FOvercast.9 mph76%30.24 "Hg10 mi
7:53 AM45 °FOvercast.9 mph76%30.23 "Hg10 mi
7:34 AM45 °FOvercast.13 mph76%30.23 "Hg10 mi
6:53 AM45 °FOvercast.12 mph81%30.22 "Hg10 mi
6:34 AM46 °FOvercast.12 mph76%30.22 "Hg10 mi
6:13 AM46 °FOvercast.9 mph76%30.22 "Hg10 mi
5:53 AM46 °FOvercast.10 mph76%30.21 "Hg10 mi
5:33 AM46 °FOvercast.9 mph76%30.21 "Hg10 mi
5:14 AM46 °FOvercast.10 mph76%30.20 "Hg10 mi
4:53 AM46 °FMostly cloudy.12 mph76%30.19 "Hg10 mi
4:33 AM46 °FMostly cloudy.8 mph82%30.19 "Hg10 mi
4:14 AM46 °FMostly cloudy.8 mph82%30.19 "Hg10 mi
3:53 AM46 °FMostly cloudy.12 mph82%30.18 "Hg10 mi
3:33 AM46 °FMostly cloudy.13 mph82%30.18 "Hg10 mi
3:13 AM46 °FMostly cloudy.12 mph82%30.18 "Hg10 mi
2:53 AM46 °FMostly cloudy.15 mph82%30.18 "Hg10 mi
2:34 AM46 °FMostly cloudy.21 mph87%30.17 "Hg10 mi
2:13 AM46 °FOvercast.22 mph87%30.16 "Hg10 mi
1:53 AM48 °FOvercast.23 mph82%30.15 "Hg10 mi
1:34 AM48 °FMostly cloudy.24 mph82%30.14 "Hg10 mi
1:13 AM48 °FMostly cloudy.16 mph82%30.14 "Hg10 mi
Weather by CustomWeather, © 2014

See weather overviewHow to use our weather pages